Lakeville, MN

3:03 AM CDT on July 28, 2017 (GMT -0500)
Airlake

Weather History for KLVN - February, 2012

Change the Weather History Date:

Tuesday, February 28, 2012

  Actual Average Record
Temperature  
Mean Temperature 26 °F -  
Max Temperature 30 °F 33 °F 50 °F (1985)
Min Temperature 23 °F 17 °F -26 °F (1962)
Degree Days  
Heating Degree Days 38    
Moisture  
Dew Point 23 °F    
Average Humidity 81    
Maximum Humidity 93    
Minimum Humidity 69    
Precipitation  
Precipitation 0.14 in - - ()
Sea Level Pressure  
Sea Level Pressure 30.13 in    
Wind  
Wind Speed 8 mph (SE)    
Max Wind Speed 18 mph    
Max Gust Speed 23 mph    
Visibility 7 miles    
Events Snow    
Averages and records for this station are not official NWS values.
T = Trace of Precipitation, MM = Missing Value Source: NWS Daily Summary

Daily Weather History Graph

Daily Weather History Graph

Search for Another Location

Airport or City:

Trip Planner

Search our weather history database for the weather conditions in past years. The results will help you decide how hot, cold, wet, or windy it might be!

Date:

Astronomy

Feb. 28, 2012 Rise Set
Actual Time 6:52 AM CST 5:58 PM CST
Civil Twilight 6:23 AM CST 6:28 PM CST
Nautical Twilight 5:49 AM CST 7:01 PM CST
Astronomical Twilight 5:16 AM CST 7:35 PM CST
Moon 9:43 AM CST 12:09 AM CST
Length of Visible Light 12h 04m
Length of Day
11h 05m
Waxing Crescent, 38% of the Moon is Illuminated
Feb 28
Waxing Crescent
Feb 29
First Quarter
Mar 8
Full
Mar 14
Last Quarter
Mar 22
New

Hourly Weather History & Observations

Time (CST) Temp. Windchill Dew Point Humidity Pressure Visibility Wind Dir Wind Speed Gust Speed Precip Events Conditions
12:03 AM 23.0 °F 15.8 °F 17.6 °F 80% 30.35 in 10.0 mi SE 5.8 mph - N/A   Mostly Cloudy
12:24 AM 23.0 °F 13.9 °F 17.6 °F 80% 30.32 in 10.0 mi ESE 8.1 mph - N/A   Overcast
12:43 AM 24.8 °F 16.1 °F 17.6 °F 74% 30.31 in 10.0 mi ESE 8.1 mph - N/A   Overcast
1:03 AM 24.8 °F 16.1 °F 17.6 °F 74% 30.29 in 10.0 mi ESE 8.1 mph - N/A   Mostly Cloudy
1:24 AM 24.8 °F 14.0 °F 17.6 °F 74% 30.29 in 10.0 mi SSE 11.5 mph - N/A   Overcast
1:44 AM 24.8 °F 16.9 °F 17.6 °F 74% 30.29 in 10.0 mi SSE 6.9 mph - N/A   Overcast
2:03 AM 26.6 °F 20.0 °F 17.6 °F 69% 30.30 in 10.0 mi SE 5.8 mph - N/A   Overcast
2:24 AM 26.6 °F 18.2 °F 17.6 °F 69% 30.30 in 10.0 mi South 8.1 mph - N/A   Overcast
2:43 AM 26.6 °F 19.1 °F 17.6 °F 69% 30.29 in 10.0 mi SSE 6.9 mph - N/A   Overcast
3:03 AM 26.6 °F 22.6 °F 17.6 °F 69% 30.32 in 10.0 mi WSW 3.5 mph - N/A   Overcast
3:24 AM 26.6 °F 21.2 °F 17.6 °F 69% 30.30 in 10.0 mi SSE 4.6 mph - N/A   Overcast
3:44 AM 26.6 °F 20.0 °F 17.6 °F 69% 30.28 in 10.0 mi ESE 5.8 mph - N/A   Overcast
4:03 AM 26.6 °F 21.2 °F 17.6 °F 69% 30.28 in 10.0 mi SE 4.6 mph - N/A   Overcast
4:24 AM 26.6 °F 21.2 °F 17.6 °F 69% 30.28 in 10.0 mi SSE 4.6 mph - N/A   Overcast
4:44 AM 26.6 °F 21.2 °F 17.6 °F 69% 30.27 in 10.0 mi SSE 4.6 mph - N/A   Overcast
5:03 AM 28.4 °F 22.2 °F 19.4 °F 69% 30.27 in 10.0 mi SSE 5.8 mph - N/A   Overcast
5:24 AM 28.4 °F 23.3 °F 19.4 °F 69% 30.26 in 10.0 mi South 4.6 mph - N/A   Overcast
5:44 AM 28.4 °F 24.6 °F 19.4 °F 69% 30.25 in 10.0 mi SE 3.5 mph - N/A   Overcast
6:03 AM 28.4 °F 23.3 °F 19.4 °F 69% 30.25 in 10.0 mi SSE 4.6 mph - N/A   Overcast
6:24 AM 28.4 °F 23.3 °F 19.4 °F 69% 30.25 in 10.0 mi SSE 4.6 mph - N/A   Overcast
6:44 AM 28.4 °F 23.3 °F 21.2 °F 74% 30.23 in 4.0 mi ESE 4.6 mph - N/A Snow Light Snow
7:03 AM 28.4 °F 23.3 °F 19.4 °F 69% 30.24 in 10.0 mi SE 4.6 mph - N/A   Overcast
7:24 AM 28.4 °F 21.2 °F 19.4 °F 69% 30.22 in 10.0 mi SE 6.9 mph - N/A   Overcast
7:43 AM 28.4 °F 20.4 °F 21.2 °F 74% 30.22 in 7.0 mi SSE 8.1 mph - N/A   Overcast
8:04 AM 28.4 °F 21.2 °F 21.2 °F 74% 30.22 in 5.0 mi SSE 6.9 mph - N/A Snow Light Snow
8:23 AM 28.4 °F 20.4 °F 23.0 °F 80% 30.21 in 5.0 mi SSE 8.1 mph - N/A Snow Light Snow
8:44 AM 28.4 °F 20.4 °F 23.0 °F 80% 30.20 in 7.0 mi SSE 8.1 mph - N/A Snow Light Snow
9:04 AM 28.4 °F 21.2 °F 23.0 °F 80% 30.19 in 7.0 mi SSE 6.9 mph - N/A Snow Light Snow
9:23 AM 28.4 °F 20.4 °F 24.8 °F 86% 30.18 in 10.0 mi SE 8.1 mph - N/A Snow Light Snow
9:44 AM 28.4 °F 19.7 °F 24.8 °F 86% 30.17 in 10.0 mi SE 9.2 mph - N/A   Overcast
10:04 AM 28.4 °F 19.1 °F 24.8 °F 86% 30.15 in 7.0 mi SE 10.4 mph - N/A Snow Light Snow
10:23 AM 30.2 °F 21.3 °F 23.0 °F 75% 30.14 in 10.0 mi SE 10.4 mph - N/A   Overcast
10:44 AM 30.2 °F 20.8 °F 24.8 °F 80% 30.13 in 10.0 mi SE 11.5 mph - N/A   Overcast
11:04 AM 30.2 °F 21.9 °F 24.8 °F 80% 30.12 in 10.0 mi SE 9.2 mph - N/A   Overcast
11:23 AM 30.2 °F 21.3 °F 24.8 °F 80% 30.11 in 10.0 mi SE 10.4 mph - N/A   Overcast
11:43 AM 30.2 °F 21.3 °F 24.8 °F 80% 30.10 in 10.0 mi SE 10.4 mph - N/A   Overcast
12:04 PM 30.2 °F 23.4 °F 26.6 °F 86% 30.09 in 2.5 mi SE 6.9 mph - N/A Snow Light Snow
12:23 PM 30.2 °F 21.3 °F 28.4 °F 93% 30.08 in 2.0 mi SE 10.4 mph - N/A Snow Light Snow
12:43 PM 30.2 °F 20.8 °F 28.4 °F 93% 30.06 in 1.5 mi SE 11.5 mph - N/A Snow Light Snow
1:03 PM 30.2 °F 21.3 °F 28.4 °F 93% 30.04 in 1.2 mi ESE 10.4 mph - 0.01 in Snow Light Snow
1:23 PM 30.2 °F 20.8 °F 28.4 °F 93% 30.03 in 2.0 mi SE 11.5 mph - 0.02 in Snow Light Snow
1:44 PM 30.2 °F 22.6 °F 28.4 °F 93% 30.02 in 3.0 mi ESE 8.1 mph - 0.03 in Snow Light Snow
1:55 PM 30.2 °F 21.3 °F 28.4 °F 93% 30.01 in 4.0 mi ESE 10.4 mph - 0.03 in   Overcast
2:03 PM 30.2 °F 21.3 °F 28.4 °F 93% 30.00 in 4.0 mi ESE 10.4 mph - 0.01 in   Overcast
2:23 PM 30.2 °F 21.9 °F 28.4 °F 93% 29.99 in 5.0 mi ESE 9.2 mph - 0.01 in   Overcast
2:44 PM 30.2 °F 20.2 °F 28.4 °F 93% 29.98 in 7.0 mi ESE 12.7 mph 17.3 mph 0.01 in   Overcast
2:55 PM 30.2 °F 21.3 °F 28.4 °F 93% 29.97 in 7.0 mi ESE 10.4 mph - 0.01 in   Overcast
3:04 PM 30.2 °F 18.9 °F 28.4 °F 93% 29.96 in 7.0 mi ESE 16.1 mph - N/A   Overcast
3:23 PM 30.2 °F 19.8 °F 28.4 °F 93% 29.94 in 7.0 mi ESE 13.8 mph - N/A   Overcast
3:44 PM 30.2 °F 18.1 °F 28.4 °F 93% 29.91 in 7.0 mi ESE 18.4 mph - N/A   Overcast
4:04 PM 30.2 °F 19.3 °F 28.4 °F 93% 29.90 in 5.0 mi East 15.0 mph 20.7 mph N/A   Overcast
4:23 PM 30.2 °F 18.9 °F 28.4 °F 93% 29.89 in 4.0 mi ESE 16.1 mph 21.9 mph N/A   Overcast
4:44 PM 30.2 °F 18.5 °F 28.4 °F 93% 29.88 in 4.0 mi East 17.3 mph 23.0 mph N/A   Overcast
4:55 PM 30.2 °F 19.8 °F 28.4 °F 93% 29.88 in 4.0 mi East 13.8 mph - 0.01 in   Overcast
5:03 PM 30.2 °F 19.8 °F 28.4 °F 93% 29.88 in 4.0 mi East 13.8 mph - N/A   Overcast
5:23 PM 30.2 °F 20.2 °F 28.4 °F 93% 29.88 in 2.0 mi East 12.7 mph - 0.02 in   Overcast
5:44 PM 30.2 °F 21.3 °F 28.4 °F 93% 29.86 in 2.0 mi East 10.4 mph - 0.07 in   Overcast
5:55 PM 30.2 °F 21.9 °F 28.4 °F 93% 29.86 in 2.5 mi East 9.2 mph - 0.09 in   Overcast
6:04 PM 30.2 °F 21.3 °F 30.2 °F 100% 29.85 in 2.0 mi East 10.4 mph - 0.02 in   Overcast
6:23 PM 30.2 °F 21.3 °F 30.2 °F 100% 29.83 in 2.5 mi East 10.4 mph - 0.04 in   Overcast
6:44 PM 30.2 °F 20.8 °F 30.2 °F 100% 29.82 in 2.5 mi East 11.5 mph - 0.07 in   Overcast
6:55 PM 30.2 °F 23.4 °F 30.2 °F 100% 29.84 in 3.0 mi East 6.9 mph - 0.09 in   Overcast
7:04 PM 30.2 °F 21.9 °F 30.2 °F 100% 29.82 in 2.5 mi East 9.2 mph - 0.03 in   Overcast
7:23 PM 30.2 °F 25.4 °F 30.2 °F 100% 29.84 in 4.0 mi East 4.6 mph - 0.07 in   Overcast
7:44 PM 30.2 °F 23.4 °F 30.2 °F 100% 29.81 in 3.0 mi East 6.9 mph - 0.11 in   Overcast
7:55 PM 30.2 °F 23.4 °F 30.2 °F 100% 29.80 in 4.0 mi East 6.9 mph - 0.13 in   Overcast
8:03 PM 30.2 °F 23.4 °F 30.2 °F 100% 29.79 in 3.0 mi East 6.9 mph - 0.02 in   Overcast
8:24 PM 30.2 °F 23.4 °F 30.2 °F 100% 29.77 in 5.0 mi East 6.9 mph - 0.06 in   Overcast
8:43 PM 30.2 °F 25.4 °F 30.2 °F 100% 29.77 in 5.0 mi East 4.6 mph - 0.07 in   Overcast
8:55 PM 30.2 °F 24.3 °F 30.2 °F 100% 29.78 in 5.0 mi East 5.8 mph - 0.08 in   Overcast
9:04 PM 30.2 °F 25.4 °F 30.2 °F 100% 29.77 in 5.0 mi East 4.6 mph - 0.01 in   Overcast
9:24 PM 30.2 °F 25.4 °F 30.2 °F 100% 29.75 in 4.0 mi East 4.6 mph - 0.04 in   Overcast
9:43 PM 30.2 °F 24.3 °F 30.2 °F 100% 29.73 in 4.0 mi East 5.8 mph - 0.07 in   Overcast
9:55 PM 30.2 °F 25.4 °F 30.2 °F 100% 29.72 in 4.0 mi East 4.6 mph - 0.08 in   Overcast
10:04 PM 30.2 °F 24.3 °F 30.2 °F 100% 29.70 in 3.0 mi East 5.8 mph - 0.02 in   Overcast
10:23 PM 30.2 °F 24.3 °F 30.2 °F 100% 29.68 in 2.5 mi East 5.8 mph - 0.05 in   Overcast
10:40 PM 30.2 °F 23.4 °F 30.2 °F 100% 29.66 in 2.0 mi East 6.9 mph - 0.09 in   Overcast